Вернуться в каталог

DELTA 4 R/B

АктивенHEO
NORAD 27692·ROCKET BODY·🇺🇸 United States

Запущен Mar 11, 2003 с Cape Canaveral Space Force Station

Loading…

Ближайшие Пролёты (ближайшие 24 часа)

TLE

СвежийSource: Space-Track

Эпоха: Sep 14, 2026, 19:04 UTC

1 27692U 03008B   26257.79471090  .00039079  00000-0  15367-2 0  9998
2 27692  25.2525 279.1075 5640022 265.8698  31.3670  4.66868050105563

Отслеживайте DELTA 4 R/B в реальном времени с AllMySat

Download on the App Store